Location: El Carrer d�Abaix
(41.5797°N, 2.1791°E)
Time: 21:52:45
(UTC+00:00)

Cosmos 2082 Rocket - Pass Details

Date: 01 October 2020
Orbit: 834 x 853 km, 71.0° (Epoch: 27 October)

Event Time Altitude Azimuth Distance (km) Brightness Sun altitude
Rises 19:15:43 0° 337° (NNW) 3,393 5.9 -20.0°
Reaches altitude 10° 19:18:10 10° 340° (NNW) 2,456 5.0 -20.5°
Maximum altitude 19:23:48 73° 65° (ENE) 880 2.1 -21.5°
Enters shadow 19:25:48 41° 138° (SE) 1,200 2.6 -21.8°
